Location: Black River Observatory
(43.1000°N, 82.6200°W)
Time: 12:19:08
(UTC-04:00)

Daily predictions for brighter satellites

Satellite Brightness Start Highest point End
(mag) Time Altitude Azimuth Time Altitude Azimuth Time Altitude Azimuth
COSMOS 2428 3.3 21:38:06 10° NNW 21:43:32 44° ENE 21:48:56 10° SE
Cosmos 1437 Rocket 2.9 21:40:19 10° NNW 21:44:08 77° W 21:47:59 10° S
ARGOS 4.5 21:41:55 10° ESE 21:46:15 25° ENE 21:50:34 10° N
ERS-1 Rocket 3.1 21:42:22 10° SSE 21:47:23 80° WSW 21:52:28 10° NNW
Cosmos 2219 Rocket 3.6 21:42:48 10° N 21:47:26 26° NE 21:52:02 10° ESE
Envisat 3.1 21:44:03 10° SSE 21:49:04 65° ENE 21:54:07 10° N
Cosmos 2266 Rocket 4.0 21:43:35 10° S 21:49:50 73° E 21:56:01 10° NNE
Cosmos 1939 Rocket 2.8 21:46:16 10° SSE 21:50:11 77° ENE 21:54:04 10° N
Cosmos 1805 Rocket 4.4 21:47:26 10° SSE 21:51:24 32° E 21:55:22 10° NNE
Terra 4.0 21:50:33 10° ENE 21:51:57 11° ENE 21:53:22 10° NE
Cosmos 2315 Rocket 4.2 21:52:08 10° N 21:58:16 59° ENE 22:04:21 10° SSE
Cosmos 1726 3.4 21:57:18 10° NNE 22:00:35 27° ENE 22:03:46 10° SE
SL-23 DEB 4.1 21:55:53 10° WNW 22:01:35 76° SW 22:05:00 11° SE
NOSS 3-1 (C) 3.6 21:56:16 10° SSW 22:01:52 50° ESE 22:08:04 10° NE
Cosmos 2112 Rocket 4.0 21:57:27 10° NNW 22:02:43 87° ENE 22:08:00 10° SSE
Cosmos 2237 4.4 21:59:26 10° NNW 22:05:11 68° ENE 22:10:48 10° SE
CZ-4 SHROUD 3.4 22:02:17 10° SSE 22:05:22 56° ENE 22:08:27 10° N
H-2A R/B 2.6 22:03:56 10° S 22:08:25 65° WSW 22:12:56 10° NNW
Cosmos 1707 Rocket 3.9 22:04:55 10° N 22:09:09 47° ENE 22:13:15 11° SSE
Cosmos 1666 Rocket 4.1 22:09:58 10° SSE 22:14:04 41° E 22:18:15 10° NNE
Cosmos 2298 Rocket 4.3 22:09:02 10° S 22:14:08 49° ESE 22:19:15 10° NNE
Cosmos 1328 3.8 22:11:27 10° S 22:15:23 88° E 22:19:22 10° N
Tiangong 1 1.6 22:12:30 10° SW 22:15:24 37° SSE 22:18:17 10° E
Cosmos 2219 3.2 22:10:14 10° SSW 22:15:58 80° ESE 22:21:45 10° NNE
Meteor 1-4 Rocket 3.6 22:15:15 10° N 22:18:39 31° ENE 22:21:10 15° SE
Cosmos 2237 Rocket 3.4 22:15:34 10° N 22:20:36 31° NE 22:25:15 12° ESE
Cosmos 2333 4.3 22:16:54 10° NNW 22:22:38 69° ENE 22:27:36 14° SE
Cosmos 1271 Rocket 3.5 22:22:24 10° N 22:25:59 36° ENE 22:28:33 17° SE
Aureole 3 4.4 22:22:47 10° S 22:29:19 78° W 22:34:27 10° N
MetOp-B 4.2 22:24:03 10° SSE 22:29:25 88° WSW 22:34:49 10° NNW
CZ-4B R/B 3.6 22:25:04 10° NNE 22:30:18 60° ESE 22:35:24 10° S
Cosmos 2360 Rocket 3.3 22:26:00 10° NW 22:31:14 40° WSW 22:36:27 10° S
NOSS 0 Rocket 4.4 22:26:34 10° NNW 22:32:33 51° ENE 22:37:22 16° SE
Cosmos 1703 3.9 22:32:27 17° SSE 22:34:57 36° E 22:38:34 10° NNE
SL-14 R/B 3.2 22:31:40 10° S 22:35:36 70° E 22:39:36 10° NNE
NOAA 11 4.3 22:32:40 15° SSE 22:37:09 63° ENE 22:42:33 10° N
Meteor 1-27 4.2 22:32:25 10° N 22:38:09 88° W 22:43:18 12° S
H-2A R/B 3.0 22:36:57 16° SE 22:40:42 38° ENE 22:45:42 10° N
PSLV R/B 4.4 22:38:58 10° SSW 22:41:48 37° W 22:44:40 10° NNW
Cosmos 1626 3.6 22:41:26 19° ESE 22:42:39 22° E 22:45:37 10° NE
SPOT 5 3.7 22:42:25 10° S 22:46:49 45° W 22:51:29 10° NNW
Delta 2 Rocket 4.2 22:45:19 10° WSW 22:48:09 22° S 22:48:40 21° S
Cosmos 1898 Rocket 3.5 22:47:00 10° SSW 22:52:11 90° E 22:57:26 10° NNE
YAOGAN 6 3.3 22:50:10 15° S 22:53:01 50° W 22:56:33 10° NNW
SPOT 1/Viking Rocket 3.6 22:48:49 15° S 22:53:05 76° WSW 22:58:16 10° NNW
Lacrosse 4 Rocket 3.4 22:52:12 10° N 22:55:35 21° NE 22:58:32 12° E
Cosmos 858 Rocket 4.5 22:51:18 10° SSW 22:56:31 89° ESE 23:01:45 10° NNE
Cosmos 2227 Rocket 2.4 22:55:43 14° S 23:00:18 49° ESE 23:05:44 10° NE
Cosmos 1300 3.9 22:57:02 10° NNW 23:00:39 39° W 23:03:49 13° SSW
Cosmos 2058 4.2 22:56:55 10° SSW 23:00:46 38° WNW 23:04:38 10° N
Cosmos 2150 Rocket 4.3 22:57:07 10° SSW 23:02:34 74° WNW 23:08:04 10° NNE
Cosmos 292 Rocket 3.9 23:01:00 10° NNW 23:05:46 71° WSW 23:08:40 23° S
Cosmos 2242 Rocket 3.8 23:01:51 10° NNW 23:06:19 71° W 23:09:20 20° S
NOSS 3-1 (A) 3.6 23:00:27 10° SW 23:06:21 79° NW 23:12:59 10° NE
Sich 1 3.6 23:03:18 10° SSW 23:07:39 58° W 23:12:00 10° N
Cosmos 1862 Rocket 3.8 23:03:50 10° N 23:08:06 54° E 23:10:02 29° SE
COSMOS 2455 3.7 23:04:24 10° NNW 23:10:06 41° NE 23:14:03 19° ESE
CARTOSAT-1 3.7 23:08:07 28° SE 23:10:12 59° ENE 23:14:27 10° N
Cosmos 1633 Rocket 3.7 23:08:28 10° SSW 23:12:46 54° W 23:17:03 10° N
Landsat 7 3.8 23:10:20 26° SSE 23:13:05 87° ENE 23:17:52 10° NNW
SL-16 R/B 3.2 23:09:38 10° N 23:14:53 37° ENE 23:18:12 20° ESE
Cosmos 2333 Rocket 2.2 23:10:19 10° NNW 23:16:06 89° ENE 23:19:24 27° SSE
SAR-Lupe-2 3.9 23:15:11 35° SE 23:16:16 49° ENE 23:19:45 10° N
USA 245 4.3 23:15:30 17° SW 23:16:19 20° W 23:18:09 10° NW
Cosmos 1346 2.9 23:20:05 52° S 23:20:43 83° E 23:23:46 10° NNE
FALCON 9 R/B 4.1 22:55:10 10° W 23:21:50 57° S 23:27:16 20° ESE
Cosmos 1455 2.1 23:19:21 10° N 23:23:10 82° E 23:24:28 40° SSE
BREEZE-M DEB (TANK) 2.4 23:22:20 10° NW 23:24:22 57° NNE 23:25:19 34° E
ARGOS 3.9 23:22:16 17° SSW 23:26:11 47° W 23:31:24 10° NNW
Cosmos 2297 Rocket 2.3 23:23:49 24° S 23:27:07 57° ESE 23:32:39 10° NNE
ERBS 2.2 23:23:56 10° SW 23:27:26 87° SE 23:30:56 10° NE
COSMOS 2428 4.2 23:22:46 10° NW 23:27:33 29° WSW 23:31:38 13° SSW
DELTA 2 DEB (DPAF) 4.5 23:25:18 26° S 23:27:40 60° W 23:32:08 10° NNW
ATLAS 2AS CENTAUR R/B 3.0 23:21:16 10° SSW 23:28:38 66° ESE 23:36:36 10° NE
Terra 1.8 23:26:41 32° SSE 23:28:56 88° ENE 23:33:44 10° NNW
DMSP B5D2-2 4.0 23:26:02 10° NNE 23:31:16 73° ESE 23:34:06 28° S
Cosmos 2219 Rocket 2.7 23:26:15 10° NNW 23:31:41 53° WSW 23:34:43 25° S
Cosmos 1726 4.5 23:33:01 10° NW 23:35:47 19° W 23:38:27 10° SW
Spot 4 3.8 23:34:28 35° SSE 23:36:32 82° ENE 23:41:25 10° NNW
Cosmos 1869 Rocket 4.5 23:36:29 31° ESE 23:37:14 33° E 23:41:15 10° NNE
IGS 5A 3.4 23:36:25 39° S 23:37:54 80° WSW 23:42:06 10° NNW
Cosmos 468 4.5 23:35:57 10° NNW 23:41:19 80° ENE 23:43:31 37° SSE
ATLAS 3B R/B 2.8 23:34:29 10° NNW 23:41:33 69° NE 23:45:16 28° SE
Cosmos 1900 4.4 23:39:31 10° NNW 23:44:30 71° NE 23:46:21 38° SE
OAO 2 Rocket 4.1 23:43:33 10° WSW 23:48:06 34° S 23:48:06 34° S
COS B Rocket 3.9 23:45:26 10° NNE 23:49:08 41° E 23:49:36 40° ESE
Cosmos 1869 3.6 23:45:21 10° NNW 23:49:22 60° W 23:50:34 40° SSW
Tiangong 1 1.7 23:48:44 10° W 23:51:01 45° W 23:51:01 45° W
Cosmos 1980 4.2 23:47:06 10° NW 23:52:32 50° WSW 23:55:01 30° SSW
ALOS 2 4.4 23:52:44 17° E 23:54:05 19° ENE 23:57:12 10° NNE
